Weather History for Kansas City International, MO

Change the Weather History Date:

Friday, November 1, 2013

  Actual Average Record
Temperature  
Mean Temperature 50 °F 51 °F  
Max Temperature 59 °F 61 °F 83 °F (1937)
Min Temperature 41 °F 41 °F 20 °F (1991)
Degree Days  
Heating Degree Days 15 14  
Month to date heating degree days 15 14  
Since 1 July heating degree days 363 374  
Cooling Degree Days 0 0  
Month to date cooling degree days 0 0  
Year to date cooling degree days 1345 1358  
Moisture  
Dew Point 37 °F    
Average Humidity 62    
Maximum Humidity 76    
Minimum Humidity 47    
Precipitation  
Precipitation T in 0.08 in 1.98 in (1998)
Month to date precipitation T 0.08  
Year to date precipitation 32.25 35.26  
Snow  
Snow 0.00 in 0.00 in 0.40 in (1991)
Month to date snowfall 0.0 0.0  
Since 1 July snowfall 0.0 0.2  
Since 1 September snowfall 0.0 0.2  
Snow Depth 0.00 in    
Sea Level Pressure  
Sea Level Pressure 29.80 in    
Wind  
Wind Speed 9 mph (WNW)    
Max Wind Speed 23 mph    
Max Gust Speed 29 mph    
Visibility 10 miles    
Events      
T = Trace of Precipitation, MM = Missing Value Source: NWS Daily Summary

Daily Weather History Graph

Daily Weather History Graph

Search for Another Location

Airport:

Trip Planner

Search our weather history database for the weather conditions in past years. The results will help you decide how hot, cold, wet, or windy it might be!

Date:

Astronomy

Nov. 01, 2013 Rise Set
Actual Time 7:47 AM CDT 6:17 PM CDT
Civil Twilight 7:19 AM CDT 6:45 PM CDT
Nautical Twilight 6:47 AM CDT 7:16 PM CDT
Astronomical Twilight 6:16 AM CDT 7:48 PM CDT
Moon 5:40 AM CDT (11/1) 5:10 PM CDT (11/1)
Length of Visible Light 11h 25m
Length of Day
10h 30m
Waning Crescent, 4% of the Moon is Illuminated
Nov 1
Waning Crescent
Nov 3
New
Nov 9
First Quarter
Nov 17
Full
Nov 25
Last Quarter

Hourly Weather History & Observations

Time (CDT) Temp. Windchill Dew Point Humidity Pressure Visibility Wind Dir Wind Speed Gust Speed Precip Events Conditions
12:53 AM 45.0 °F 41.2 °F 37.9 °F 76% 29.65 in 10.0 mi WSW 6.9 mph - N/A   Clear
1:53 AM 44.1 °F 40.8 °F 37.0 °F 76% 29.67 in 10.0 mi SW 5.8 mph - N/A   Clear
2:53 AM 45.0 °F 41.8 °F 36.0 °F 71% 29.68 in 10.0 mi West 5.8 mph - N/A   Clear
3:53 AM 45.0 °F 41.2 °F 36.0 °F 71% 29.69 in 10.0 mi West 6.9 mph - N/A   Partly Cloudy
4:53 AM 43.0 °F 39.5 °F 36.0 °F 76% 29.70 in 10.0 mi WSW 5.8 mph - N/A   Scattered Clouds
5:53 AM 44.1 °F 40.1 °F 36.0 °F 73% 29.71 in 10.0 mi West 6.9 mph - N/A   Scattered Clouds
6:53 AM 43.0 °F 39.5 °F 36.0 °F 76% 29.72 in 10.0 mi West 5.8 mph - N/A   Scattered Clouds
7:53 AM 42.1 °F 38.4 °F 36.0 °F 79% 29.74 in 10.0 mi West 5.8 mph - N/A   Clear
8:53 AM 45.0 °F 39.7 °F 37.0 °F 74% 29.77 in 10.0 mi West 10.4 mph - N/A   Partly Cloudy
9:53 AM 48.9 °F - 37.9 °F 66% 29.79 in 10.0 mi WNW 8.1 mph - N/A   Partly Cloudy
10:53 AM 52.0 °F - 39.0 °F 61% 29.81 in 10.0 mi NW 9.2 mph - N/A   Partly Cloudy
11:53 AM 55.9 °F - 39.9 °F 55% 29.82 in 10.0 mi WNW 12.7 mph - N/A   Mostly Cloudy
12:53 PM 55.9 °F - 39.9 °F 55% 29.82 in 10.0 mi NW 9.2 mph - N/A   Mostly Cloudy
1:53 PM 57.9 °F - 39.9 °F 51% 29.82 in 10.0 mi NW 11.5 mph 19.6 mph N/A   Mostly Cloudy
2:53 PM 57.9 °F - 37.0 °F 46% 29.83 in 10.0 mi NW 15.0 mph 21.9 mph N/A   Mostly Cloudy
3:53 PM 57.9 °F - 39.9 °F 51% 29.83 in 10.0 mi NW 12.7 mph - N/A   Mostly Cloudy
4:53 PM 55.9 °F - 39.0 °F 53% 29.85 in 10.0 mi WNW 8.1 mph - N/A   Mostly Cloudy
5:53 PM 55.9 °F - 37.0 °F 49% 29.86 in 10.0 mi WNW 6.9 mph - N/A   Scattered Clouds
6:53 PM 52.0 °F - 35.1 °F 53% 29.88 in 10.0 mi WSW 4.6 mph - N/A   Scattered Clouds
7:53 PM 48.9 °F - 34.0 °F 56% 29.91 in 10.0 mi West 6.9 mph - N/A   Mostly Cloudy
8:53 PM 48.9 °F - 37.9 °F 66% 29.94 in 10.0 mi NW 6.9 mph - 0.00 in   Mostly Cloudy
9:53 PM 46.0 °F 41.9 °F 39.0 °F 76% 29.96 in 10.0 mi WNW 8.1 mph - N/A   Mostly Cloudy
10:53 PM 46.0 °F 41.4 °F 37.0 °F 71% 29.97 in 10.0 mi WNW 9.2 mph - N/A   Mostly Cloudy
11:53 PM 46.0 °F 40.6 °F 37.0 °F 71% 29.98 in 10.0 mi WNW 11.5 mph - N/A   Partly Cloudy